CQ0XPA-11 Weather Reports


Display with metric or nautical units.
time (UTC)temp
F
wind
direction
speed
MPH
gust
MPH
rain 1hr
in
rain 24hr
in
rain mn
in
humidity
%
barometer
mb
20201028141036 71 157 0.0 2.0 0.00 0.00 0.00 85 1016.6
20201028140822 71 157 0.0 1.0 0.00 0.00 0.00 86 1016.6
20201028140620 71 270 0.0 0.0 0.00 0.00 0.00 86 1016.6
20201028140413 71 157 0.0 0.0 0.00 0.00 0.00 85 1016.7
20201028140212 71 270 0.0 1.0 0.00 0.00 0.00 86 1016.7
20201028140056 71 270 1.0 1.0 0.00 0.00 0.00 85 1016.7
20201028135816 71 157 0.0 2.0 0.00 0.00 0.00 85 1016.6
20201028135607 71 157 1.0 3.0 0.00 0.00 0.00 86 1016.7
20201028135404 71 157 1.0 3.0 0.00 0.00 0.00 86 1016.7
20201028135202 71 157 3.0 3.0 0.00 0.00 0.00 86 1016.7
20201028135005 71 270 1.0 6.0 0.00 0.00 0.00 85 1016.8
20201028134759 72 270 1.0 6.0 0.00 0.00 0.00 85 1016.8
20201028134557 72 270 6.0 6.0 0.00 0.00 0.00 87 1016.6
20201028134404 72 270 2.0 3.0 0.00 0.00 0.00 88 1016.8
20201028134151 72 157 1.0 3.0 0.00 0.00 0.00 88 1016.7
20201028133949 72 270 2.0 4.0 0.00 0.00 0.00 88 1016.7
20201028133749 73 270 2.0 4.0 0.00 0.00 0.00 90 1016.7
20201028133547 73 225 3.0 3.0 0.00 0.00 0.00 90 1016.7
20201028133343 73 180 2.0 5.0 0.00 0.00 0.00 90 1016.8
20201028133154 73 270 1.0 6.0 0.00 0.00 0.00 91 1016.7
20201028132938 74 225 3.0 6.0 0.00 0.00 0.00 93 1016.8
20201028132736 74 157 3.0 5.0 0.00 0.00 0.00 95 1016.8
20201028132539 74 180 2.0 4.0 0.00 0.00 0.00 95 1016.8
20201028132333 74 270 2.0 4.0 0.00 0.00 0.00 96 1016.8
20201028132134 73 270 3.0 3.0 0.00 0.00 0.00 97 1016.8
20201028131929 73 270 1.0 2.0 0.00 0.00 0.00 95 1016.9
20201028131741 73 180 1.0 3.0 0.00 0.00 0.00 95 1016.8
20201028131524 73 180 1.0 3.0 0.00 0.00 0.00 97 1017.0
20201028131324 72 180 3.0 5.0 0.00 0.00 0.00 100 1017.0
20201028131120 72 270 0.0 7.0 0.00 0.00 0.00 100 1016.9
20201028130922 72 270 1.0 7.0 0.00 0.00 0.00 100 1017.1
20201028130718 71 180 2.0 3.0 0.00 0.00 0.00 100 1017.1
20201028130523 71 0 1.0 3.0 0.00 0.00 0.00 100 1017.1
20201028130324 70 270 0.0 4.0 0.00 0.00 0.00 100 1017.1
20201028130111 70 180 2.0 4.0 0.00 0.00 0.00 100 1017.2
20201028125908 69 168 2.0 3.0 0.00 0.00 0.00 100 1017.2
20201028125706 69 270 2.0 3.0 0.00 0.00 0.00 100 1017.1
20201028125521 68 180 1.0 3.0 0.00 0.00 0.00 100 1017.1
20201028125306 68 157 1.0 3.0 0.00 0.00 0.00 100 1017.3
20201028125059 68 180 2.0 2.0 0.00 0.00 0.00 100 1017.3
20201028124907 68 135 1.0 4.0 0.00 0.00 0.00 100 1017.3
20201028124656 67 270 2.0 4.0 0.00 0.00 0.00 100 1017.3
20201028124452 67 270 2.0 5.0 0.00 0.00 0.00 100 1017.3
20201028124251 67 270 2.0 5.0 0.00 0.00 0.00 100 1017.3
20201028124051 67 270 2.0 5.0 0.00 0.00 0.00 100 1017.2
20201028123853 67 270 1.0 5.0 0.00 0.00 0.00 100 1017.2
20201028123657 67 157 1.0 5.0 0.00 0.00 0.00 100 1017.3
20201028123448 67 270 2.0 5.0 0.00 0.00 0.00 100 1017.4
20201028123241 67 270 2.0 3.0 0.00 0.00 0.00 100 1017.3
20201028123044 67 157 2.0 3.0 0.00 0.00 0.00 100 1017.3
20201028122844 67 270 0.0 2.0 0.00 0.00 0.00 100 1017.4
20201028122637 67 157 1.0 2.0 0.00 0.00 0.00 100 1017.4
20201028122432 67 270 2.0 3.0 0.00 0.00 0.00 100 1017.4
20201028122230 66 270 3.0 3.0 0.00 0.00 0.00 100 1017.4
20201028122042 66 180 1.0 2.0 0.00 0.00 0.00 100 1017.5
20201028121828 66 157 1.0 2.0 0.00 0.00 0.00 100 1017.5
20201028121625 65 157 0.0 1.0 0.00 0.00 0.00 100 1017.5
20201028121422 65 270 0.0 1.0 0.00 0.00 0.00 100 1017.5
20201028121224 65 157 1.0 3.0 0.00 0.00 0.00 100 1017.5
20201028121019 65 270 2.0 3.0 0.00 0.00 0.00 100 1017.6
20201028120815 65 270 3.0 3.0 0.00 0.00 0.00 100 1017.6
20201028120617 65 225 3.0 4.0 0.00 0.00 0.00 100 1017.6
20201028120033 65 157 1.0 3.0 0.00 0.00 0.00 100 1017.7
20201028115807 65 270 2.0 3.0 0.00 0.00 0.00 100 1017.7
20201028115604 65 157 1.0 3.0 0.00 0.00 0.00 100 1017.8
20201028115402 65 157 3.0 3.0 0.00 0.00 0.00 100 1017.7
20201028115159 65 270 1.0 3.0 0.00 0.00 0.00 100 1017.7
20201028114958 65 270 3.0 3.0 0.00 0.00 0.00 100 1017.8
20201028114754 65 90 1.0 3.0 0.00 0.00 0.00 100 1017.9
20201028114553 65 270 3.0 3.0 0.00 0.00 0.00 100 1017.8
20201028114350 65 270 3.0 5.0 0.00 0.00 0.00 100 1017.9
20201028114149 65 270 3.0 5.0 0.00 0.00 0.00 100 1017.9
20201028113745 65 270 1.0 4.0 0.00 0.00 0.00 100 1017.8
20201028113543 65 270 3.0 4.0 0.00 0.00 0.00 100 1017.9
20201028113340 65 270 0.0 3.0 0.00 0.00 0.00 100 1017.8
20201028113138 65 270 1.0 3.0 0.00 0.00 0.00 100 1017.9
20201028112940 65 90 3.0 4.0 0.00 0.00 0.00 100 1017.8
20201028112734 65 180 1.0 4.0 0.00 0.00 0.00 100 1018.0
20201028112534 64 270 2.0 3.0 0.00 0.00 0.00 100 1018.0
20201028112330 64 90 3.0 3.0 0.00 0.00 0.00 100 1017.9
20201028112134 64 270 2.0 3.0 0.00 0.00 0.00 100 1017.9
20201028111928 64 270 0.0 3.0 0.00 0.00 0.00 100 1018.0
20201028111729 64 90 2.0 3.0 0.00 0.00 0.00 100 1017.9
20201028111526 63 90 3.0 3.0 0.00 0.00 0.00 100 1018.0
20201028111321 63 270 3.0 3.0 0.00 0.00 0.00 100 1017.9
20201028111120 63 22 2.0 3.0 0.00 0.00 0.00 100 1017.9
20201028110917 63 157 2.0 3.0 0.00 0.00 0.00 100 1017.9
20201028110719 63 22 3.0 3.0 0.00 0.00 0.00 100 1018.0
20201028110520 63 22 2.0 2.0 0.00 0.00 0.00 100 1018.0
20201028110315 63 270 1.0 4.0 0.00 0.00 0.00 100 1017.9
20201028110133 63 22 1.0 4.0 0.00 0.00 0.00 100 1018.0
20201028105905 63 270 1.0 4.0 0.00 0.00 0.00 100 1018.0
20201028105710 62 270 2.0 4.0 0.00 0.00 0.00 100 1018.0
20201028105501 62 270 2.0 4.0 0.00 0.00 0.00 100 1018.0
20201028105259 62 270 1.0 3.0 0.00 0.00 0.00 100 1018.0
20201028105058 62 270 2.0 3.0 0.00 0.00 0.00 100 1018.0
20201028104859 62 225 2.0 3.0 0.00 0.00 0.00 100 1017.9
20201028104655 62 270 1.0 3.0 0.00 0.00 0.00 100 1018.0
20201028104453 62 270 1.0 3.0 0.00 0.00 0.00 100 1017.9
20201028104258 62 270 2.0 3.0 0.00 0.00 0.00 100 1018.0
20201028104048 62 270 3.0 3.0 0.00 0.00 0.00 100 1017.9
20201028103846 62 22 2.0 2.0 0.00 0.00 0.00 100 1017.9
20201028103645 62 22 0.0 1.0 0.00 0.00 0.00 100 1017.9
20201028103441 62 270 0.0 4.0 0.00 0.00 0.00 100 1017.8
20201028103240 62 22 2.0 4.0 0.00 0.00 0.00 100 1017.9
20201028103051 62 270 4.0 4.0 0.00 0.00 0.00 100 1017.8
20201028102845 62 225 4.0 4.0 0.00 0.00 0.00 100 1017.8
20201028102633 62 270 0.0 3.0 0.00 0.00 0.00 100 1017.8
20201028102432 62 270 0.0 3.0 0.00 0.00 0.00 100 1017.8
20201028102230 61 270 1.0 2.0 0.00 0.00 0.00 100 1017.8
20201028102034 61 270 0.0 4.0 0.00 0.00 0.00 100 1017.7
20201028101825 61 270 0.0 4.0 0.00 0.00 0.00 100 1017.7
20201028101628 61 270 1.0 2.0 0.00 0.00 0.00 100 1017.8
20201028101428 61 270 2.0 3.0 0.00 0.00 0.00 100 1017.6
20201028101223 61 90 1.0 3.0 0.00 0.00 0.00 100 1017.7
20201028101019 61 22 3.0 3.0 0.00 0.00 0.00 100 1017.7
20201028100817 61 270 2.0 3.0 0.00 0.00 0.00 100 1017.7
20201028100614 61 270 3.0 3.0 0.00 0.00 0.00 100 1017.6
20201028100413 61 22 1.0 2.0 0.00 0.00 0.00 100 1017.6
20201028100218 61 270 0.0 2.0 0.00 0.00 0.00 100 1017.6
20201028100024 61 270 2.0 4.0 0.00 0.00 0.00 100 1017.5
20201028095823 61 270 1.0 4.0 0.00 0.00 0.00 100 1017.6
20201028095610 61 270 1.0 3.0 0.00 0.00 0.00 100 1017.5
20201028095400 61 22 1.0 3.0 0.00 0.00 0.00 100 1017.5
20201028095206 61 270 1.0 3.0 0.00 0.00 0.00 100 1017.5
20201028094958 61 270 1.0 4.0 0.00 0.00 0.00 100 1017.5
20201028094753 61 270 1.0 4.0 0.00 0.00 0.00 100 1017.5
20201028094556 61 270 2.0 3.0 0.00 0.00 0.00 100 1017.5
20201028094349 61 270 2.0 2.0 0.00 0.00 0.00 100 1017.4
20201028094148 61 22 1.0 2.0 0.00 0.00 0.00 100 1017.5
20201028093946 61 22 0.0 2.0 0.00 0.00 0.00 100 1017.5
20201028093746 61 22 1.0 2.0 0.00 0.00 0.00 100 1017.5
20201028093544 61 270 2.0 3.0 0.00 0.00 0.00 100 1017.3
20201028093338 61 22 2.0 3.0 0.00 0.00 0.00 100 1017.4
20201028093147 60 270 2.0 4.0 0.00 0.00 0.00 100 1017.3
20201028092935 60 157 0.0 4.0 0.00 0.00 0.00 100 1017.3
20201028092739 60 270 4.0 4.0 0.00 0.00 0.00 100 1017.3
20201028092530 60 22 1.0 3.0 0.00 0.00 0.00 100 1017.4
20201028092333 60 22 2.0 3.0 0.00 0.00 0.00 100 1017.3
20201028092125 60 22 1.0 2.0 0.00 0.00 0.00 100 1017.3
20201028091925 60 22 0.0 2.0 0.00 0.00 0.00 100 1017.3
20201028091520 60 270 2.0 2.0 0.00 0.00 0.00 100 1017.1
20201028091319 60 135 0.0 2.0 0.00 0.00 0.00 100 1017.1
20201028091117 60 202 0.0 2.0 0.00 0.00 0.00 100 1017.0
20201028090914 60 202 0.0 0.0 0.00 0.00 0.00 100 1017.0
20201028090711 60 135 0.0 0.0 0.00 0.00 0.00 100 1016.9
20201028090515 60 202 0.0 1.0 0.00 0.00 0.00 100 1017.0
20201028090314 60 135 0.0 2.0 0.00 0.00 0.00 100 1017.0
20201028090110 60 180 0.0 2.0 0.00 0.00 0.00 100 1017.0
20201028085905 60 225 0.0 4.0 0.00 0.00 0.00 100 1017.0
20201028085701 60 270 1.0 4.0 0.00 0.00 0.00 100 1016.9
20201028085459 60 22 2.0 2.0 0.00 0.00 0.00 100 1016.9
20201028085257 60 135 1.0 2.0 0.00 0.00 0.00 100 1016.9
20201028085055 60 22 0.0 3.0 0.00 0.00 0.00 100 1016.8
20201028084852 60 270 2.0 3.0 0.00 0.00 0.00 100 1016.9
20201028084651 60 270 0.0 1.0 0.00 0.00 0.00 100 1016.9
20201028084451 60 22 1.0 3.0 0.00 0.00 0.00 100 1016.8
20201028084249 60 180 1.0 3.0 0.00 0.00 0.00 100 1016.9
20201028084044 60 225 1.0 1.0 0.00 0.00 0.00 100 1016.8
20201028083848 60 270 0.0 0.0 0.00 0.00 0.00 100 1016.8
20201028083640 59 270 0.0 0.0 0.00 0.00 0.00 100 1016.6
20201028083440 59 270 0.0 0.0 0.00 0.00 0.00 100 1016.7
20201028083236 59 270 0.0 0.0 0.00 0.00 0.00 100 1016.7
20201028083046 59 157 0.0 0.0 0.00 0.00 0.00 100 1016.7
20201028082832 59 90 0.0 2.0 0.00 0.00 0.00 100 1016.6
20201028082635 59 157 0.0 2.0 0.00 0.00 0.00 100 1016.7
20201028082428 59 180 0.0 0.0 0.00 0.00 0.00 100 1016.7
20201028082226 59 270 0.0 0.0 0.00 0.00 0.00 100 1016.5
20201028082025 59 270 0.0 0.0 0.00 0.00 0.00 100 1016.6
20201028081824 59 270 0.0 0.0 0.00 0.00 0.00 100 1016.7
20201028080609 59 270 0.0 0.0 0.00 0.00 0.00 100 1016.4
20201028080407 59 270 0.0 0.0 0.00 0.00 0.00 100 1016.4
20201028080206 59 270 0.0 0.0 0.00 0.00 0.00 100 1016.5
20201028080017 59 270 0.0 0.0 0.00 0.00 0.00 100 1016.4
20201028075809 59 270 0.0 0.0 0.00 0.00 0.00 100 1016.3
20201028075558 59 22 0.0 0.0 0.00 0.00 0.00 100 1016.3
20201028075358 59 180 0.0 0.0 0.00 0.00 0.00 100 1016.2
20201028075155 59 180 0.0 0.0 0.00 0.00 0.00 100 1016.2
20201028074953 59 180 0.0 0.0 0.00 0.00 0.00 100 1016.2
20201028074750 59 180 0.0 1.0 0.00 0.00 0.00 100 1016.1
20201028074551 59 180 1.0 1.0 0.00 0.00 0.00 100 1016.1
20201028074346 58 180 0.0 2.0 0.00 0.00 0.00 100 1016.0
20201028074214 58 180 1.0 2.0 0.00 0.00 0.00 100 1016.0
20201028073945 58 135 0.0 1.0 0.00 0.00 0.00 100 1016.0
20201028073740 58 180 1.0 1.0 0.00 0.00 0.00 100 1016.0
20201028073538 58 180 0.0 1.0 0.00 0.00 0.00 100 1015.9
20201028073336 58 180 0.0 1.0 0.00 0.00 0.00 100 1015.8
20201028073135 58 180 1.0 1.0 0.00 0.00 0.00 100 1015.9
20201028072934 58 180 0.0 1.0 0.00 0.00 0.00 100 1015.8
20201028072736 58 135 1.0 1.0 0.00 0.00 0.00 100 1015.8
20201028072528 58 180 0.0 1.0 0.00 0.00 0.00 100 1015.8
20201028072325 58 135 1.0 1.0 0.00 0.00 0.00 100 1015.9
20201028072124 58 180 1.0 3.0 0.00 0.00 0.00 100 1015.7
20201028071927 58 135 2.0 3.0 0.00 0.00 0.00 100 1015.7
20201028071531 58 202 0.0 3.0 0.00 0.00 0.00 100 1015.6
20201028071318 58 135 1.0 2.0 0.00 0.00 0.00 100 1015.6
20201028071116 58 180 1.0 1.0 0.00 0.00 0.00 100 1015.6
20201028070914 58 135 1.0 1.0 0.00 0.00 0.00 100 1015.5
20201028070712 58 135 0.0 2.0 0.00 0.00 0.00 100 1015.5
20201028065902 58 135 1.0 2.0 0.00 0.00 0.00 100 1015.4
20201028064650 58 135 1.0 1.0 0.00 0.00 0.00 100 1015.4
20201028064248 58 22 0.0 2.0 0.00 0.00 0.00 100 1015.4
20201028064044 58 22 0.0 2.0 0.00 0.00 0.00 100 1015.4
20201028063635 58 22 0.0 1.0 0.00 0.00 0.00 100 1015.5
20201028063433 58 22 0.0 1.0 0.00 0.00 0.00 100 1015.4
20201028063232 58 22 0.0 0.0 0.00 0.00 0.00 100 1015.5
20201028063029 58 22 0.0 0.0 0.00 0.00 0.00 100 1015.4
20201028062832 58 180 0.0 1.0 0.00 0.00 0.00 100 1015.4
20201028062625 58 180 0.0 1.0 0.00 0.00 0.00 100 1015.3
20201028062426 58 180 0.0 1.0 0.00 0.00 0.00 100 1015.3
20201028062020 58 180 0.0 0.0 0.00 0.00 0.00 100 1015.3
20201028061816 58 180 0.0 1.0 0.00 0.00 0.00 100 1015.4
20201028061617 58 180 0.0 1.0 0.00 0.00 0.00 100 1015.3
20201028061413 58 180 0.0 1.0 0.00 0.00 0.00 100 1015.3
20201028061210 58 180 0.0 1.0 0.00 0.00 0.00 100 1015.3
20201028061014 58 180 0.0 1.0 0.00 0.00 0.00 100 1015.4
20201028060809 58 180 0.0 1.0 0.00 0.00 0.00 100 1015.3
20201028060604 58 180 1.0 1.0 0.00 0.00 0.00 100 1015.3
20201028060403 58 180 0.0 1.0 0.00 0.00 0.00 100 1015.3
20201028060201 58 180 0.0 1.0 0.00 0.00 0.00 100 1015.3
20201028055958 58 180 0.0 2.0 0.00 0.00 0.00 100 1015.4
20201028055756 58 202 1.0 3.0 0.00 0.00 0.00 100 1015.3
20201028055554 58 135 1.0 3.0 0.00 0.00 0.00 100 1015.2
20201028055352 58 157 1.0 3.0 0.00 0.00 0.00 100 1015.3
20201028055150 58 157 1.0 2.0 0.00 0.00 0.00 100 1015.2
20201028054950 58 135 1.0 3.0 0.00 0.00 0.00 100 1015.2
20201028054746 58 157 2.0 3.0 0.00 0.00 0.00 100 1015.2
20201028054544 58 180 2.0 3.0 0.00 0.00 0.00 100 1015.1
20201028054345 58 180 0.0 3.0 0.00 0.00 0.00 100 1015.1
20201028054140 58 180 2.0 3.0 0.00 0.00 0.00 100 1015.1
20201028053938 58 180 1.0 3.0 0.00 0.00 0.00 100 1015.2
20201028053736 58 135 3.0 3.0 0.00 0.00 0.00 100 1015.0
20201028053533 58 135 0.0 3.0 0.00 0.00 0.00 100 1015.1
20201028053331 58 180 1.0 3.0 0.00 0.00 0.00 100 1015.1
20201028053129 58 180 1.0 4.0 0.00 0.00 0.00 100 1015.0
20201028052928 58 180 2.0 4.0 0.00 0.00 0.00 100 1015.0
20201028052725 58 180 2.0 3.0 0.00 0.00 0.00 100 1015.0
20201028052522 58 90 1.0 2.0 0.00 0.00 0.00 100 1014.9
20201028052137 58 180 0.0 4.0 0.00 0.00 0.00 100 1014.9
20201028051917 58 180 2.0 3.0 0.00 0.00 0.00 100 1014.9
20201028051714 58 157 2.0 4.0 0.00 0.00 0.00 100 1014.9
20201028051526 58 157 4.0 4.0 0.00 0.00 0.00 100 1014.9
20201028051317 58 135 2.0 4.0 0.00 0.00 0.00 100 1014.8
20201028051131 58 180 3.0 4.0 0.00 0.00 0.00 100 1014.8
20201028050907 58 135 2.0 5.0 0.00 0.00 0.00 100 1014.8
20201028050707 58 180 3.0 7.0 0.00 0.00 0.00 100 1014.8
20201028050508 58 180 3.0 7.0 0.00 0.00 0.00 100 1014.7
20201028050300 58 157 4.0 4.0 0.00 0.00 0.00 100 1014.6
20201028050059 58 157 3.0 4.0 0.00 0.00 0.00 100 1014.7
20201028045856 58 180 2.0 6.0 0.00 0.00 0.00 100 1014.5
20201028045653 58 180 1.0 6.0 0.00 0.00 0.00 100 1014.7
20201028045456 58 180 2.0 4.0 0.00 0.00 0.00 100 1014.6
20201028045253 58 157 3.0 4.0 0.00 0.00 0.00 100 1014.6
20201028045048 58 157 4.0 5.0 0.00 0.00 0.00 100 1014.6
20201028044846 58 157 4.0 5.0 0.00 0.00 0.00 100 1014.6
20201028044645 58 157 3.0 5.0 0.00 0.00 0.00 100 1014.6
20201028044441 58 180 1.0 5.0 0.00 0.00 0.00 100 1014.6
20201028044240 58 135 4.0 5.0 0.00 0.00 0.00 100 1014.7
20201028044037 58 157 2.0 5.0 0.00 0.00 0.00 100 1014.5
20201028043840 58 180 5.0 5.0 0.00 0.00 0.00 100 1014.6
20201028043633 58 180 3.0 5.0 0.00 0.00 0.00 100 1014.5
20201028043431 58 180 1.0 5.0 0.00 0.00 0.00 100 1014.6
20201028043232 58 180 1.0 4.0 0.00 0.00 0.00 100 1014.4
20201028043027 58 146 2.0 4.0 0.00 0.00 0.00 100 1014.5
20201028042829 58 180 3.0 3.0 0.00 0.00 0.00 100 1014.4
20201028042624 58 135 3.0 3.0 0.00 0.00 0.00 100 1014.5
20201028042422 58 146 3.0 3.0 0.00 0.00 0.00 100 1014.5
20201028041417 58 135 1.0 3.0 0.00 0.00 0.00 100 1014.5
20201028041208 58 135 1.0 4.0 0.00 0.00 0.00 100 1014.5
20201028041009 58 135 2.0 4.0 0.00 0.00 0.00 100 1014.4
20201028040809 58 180 1.0 4.0 0.00 0.00 0.00 100 1014.5
20201028040606 58 168 2.0 4.0 0.00 0.00 0.00 100 1014.4
20201028040400 58 135 1.0 4.0 0.00 0.00 0.00 100 1014.5
20201028040158 58 157 1.0 4.0 0.00 0.00 0.00 100 1014.4
20201028035956 58 180 2.0 3.0 0.00 0.00 0.00 100 1014.4
20201028035754 58 146 1.0 3.0 0.00 0.00 0.00 100 1014.5
20201028035551 58 157 2.0 3.0 0.00 0.00 0.00 100 1014.5
20201028035350 58 180 2.0 3.0 0.00 0.00 0.00 100 1014.6
20201028035148 58 157 3.0 3.0 0.00 0.00 0.00 100 1014.5
20201028034948 58 135 1.0 4.0 0.00 0.00 0.00 100 1014.5
20201028034744 58 180 1.0 4.0 0.00 0.00 0.00 100 1014.5
20201028034541 59 146 4.0 4.0 0.00 0.00 0.00 100 1014.5
20201028034342 59 180 1.0 3.0 0.00 0.00 0.00 100 1014.5
20201028034143 59 180 0.0 3.0 0.00 0.00 0.00 100 1014.5
20201028033935 59 180 3.0 3.0 0.00 0.00 0.00 100 1014.5
20201028033737 59 90 1.0 2.0 0.00 0.00 0.00 100 1014.5
20201028033531 59 90 1.0 2.0 0.00 0.00 0.00 100 1014.5
20201028033337 59 135 1.0 5.0 0.00 0.00 0.00 100 1014.6
20201028033131 59 135 1.0 5.0 0.00 0.00 0.00 100 1014.5
20201028032925 59 180 1.0 5.0 0.00 0.00 0.00 100 1014.5
20201028032722 59 180 3.0 5.0 0.00 0.00 0.00 100 1014.5
20201028032521 59 157 2.0 5.0 0.00 0.00 0.00 100 1014.6
20201028032318 59 157 5.0 5.0 0.00 0.00 0.00 100 1014.6
20201028032123 59 135 2.0 4.0 0.00 0.00 0.00 100 1014.6
20201028031914 59 135 1.0 4.0 0.00 0.00 0.00 100 1014.5
20201028031712 59 157 3.0 4.0 0.00 0.00 0.00 100 1014.5
20201028031527 59 180 3.0 4.0 0.00 0.00 0.00 100 1014.5
20201028031309 59 180 2.0 5.0 0.00 0.00 0.00 100 1014.6
20201028031106 59 180 3.0 6.0 0.00 0.00 0.00 100 1014.6
20201028030906 59 157 3.0 6.0 0.00 0.00 0.00 100 1014.7
20201028030703 59 180 5.0 6.0 0.00 0.00 0.00 100 1014.6
20201028030500 59 180 4.0 5.0 0.00 0.00 0.00 100 1014.7
20201028030257 59 135 2.0 5.0 0.00 0.00 0.00 100 1014.7
20201028030057 59 135 1.0 3.0 0.00 0.00 0.00 100 1014.7
20201028025854 59 157 3.0 3.0 0.00 0.00 0.00 100 1014.7
20201028025654 59 135 0.0 5.0 0.00 0.00 0.00 100 1014.7
20201028025453 59 135 4.0 5.0 0.00 0.00 0.00 100 1014.7
20201028025254 59 180 2.0 4.0 0.00 0.00 0.00 100 1014.6
20201028025046 59 157 2.0 3.0 0.00 0.00 0.00 100 1014.7
20201028024844 59 135 1.0 4.0 0.00 0.00 0.00 100 1014.7
20201028024641 59 180 1.0 4.0 0.00 0.00 0.00 100 1014.7
20201028024440 59 180 2.0 5.0 0.00 0.00 0.00 100 1014.8
20201028024237 59 180 2.0 5.0 0.00 0.00 0.00 100 1014.8
20201028024036 59 135 3.0 5.0 0.00 0.00 0.00 100 1014.8
20201028023835 59 180 3.0 5.0 0.00 0.00 0.00 100 1014.8
20201028023632 59 225 4.0 5.0 0.00 0.00 0.00 100 1014.7
20201028023433 59 135 5.0 5.0 0.00 0.00 0.00 100 1014.7
20201028023230 59 157 3.0 5.0 0.00 0.00 0.00 100 1014.8
20201028023036 59 180 3.0 4.0 0.00 0.00 0.00 100 1014.8
20201028022823 59 168 3.0 4.0 0.00 0.00 0.00 100 1014.8
20201028022622 59 180 2.0 4.0 0.00 0.00 0.00 100 1014.9
20201028022419 59 180 1.0 4.0 0.00 0.00 0.00 100 1014.8
20201028022217 59 180 3.0 4.0 0.00 0.00 0.00 100 1014.9
20201028022021 59 135 2.0 3.0 0.00 0.00 0.00 100 1014.9
20201028021819 59 135 1.0 4.0 0.00 0.00 0.00 100 1014.9
20201028021614 59 180 2.0 4.0 0.00 0.00 0.00 100 1014.9
20201028021409 59 135 3.0 4.0 0.00 0.00 0.00 100 1014.9
20201028021210 59 180 0.0 4.0 0.00 0.00 0.00 100 1014.9
20201028020800 59 135 2.0 5.0 0.00 0.00 0.00 100 1015.0
20201028020557 59 135 2.0 5.0 0.00 0.00 0.00 100 1015.0
20201028020355 59 135 1.0 4.0 0.00 0.00 0.00 100 1015.0
20201028020154 59 135 1.0 3.0 0.00 0.00 0.00 100 1015.0
20201028015951 59 180 2.0 3.0 0.00 0.00 0.00 100 1015.0
20201028015748 59 157 2.0 2.0 0.00 0.00 0.00 100 1015.1
20201028015553 59 90 1.0 2.0 0.00 0.00 0.00 100 1015.0
20201028015149 59 135 1.0 4.0 0.00 0.00 0.00 100 1015.1
20201028014943 59 135 4.0 4.0 0.00 0.00 0.00 100 1014.9
20201028014743 59 135 3.0 3.0 0.00 0.00 0.00 100 1015.0
20201028014536 59 135 2.0 3.0 0.00 0.00 0.00 100 1015.1
20201028014337 59 180 0.0 2.0 0.00 0.00 0.00 100 1015.0
20201028014132 59 135 1.0 4.0 0.00 0.00 0.00 100 1015.0
20201028013931 59 135 2.0 4.0 0.00 0.00 0.00 100 1015.0
20201028013728 59 135 0.0 4.0 0.00 0.00 0.00 100 1015.0
20201028013528 58 180 0.0 4.0 0.00 0.00 0.00 100 1015.0
20201028013328 59 225 2.0 4.0 0.00 0.00 0.00 100 1015.0
20201028013122 58 157 0.0 6.0 0.00 0.00 0.00 100 1015.1
20201028012925 58 135 2.0 6.0 0.00 0.00 0.00 100 1015.1
20201028012519 58 180 3.0 4.0 0.00 0.00 0.00 100 1015.0
20201028012320 58 135 3.0 3.0 0.00 0.00 0.00 100 1015.2
20201028012115 58 135 1.0 3.0 0.00 0.00 0.00 100 1015.1
20201028011911 58 135 2.0 4.0 0.00 0.00 0.00 100 1015.0
20201028011711 58 180 1.0 4.0 0.00 0.00 0.00 100 1015.1
20201028011520 58 135 3.0 4.0 0.00 0.00 0.00 100 1015.1
20201028011304 58 180 1.0 4.0 0.00 0.00 0.00 100 1015.1
20201028011101 58 168 2.0 4.0 0.00 0.00 0.00 100 1015.0
20201028010909 58 135 3.0 4.0 0.00 0.00 0.00 100 1015.1
20201028010657 58 157 0.0 4.0 0.00 0.00 0.00 100 1014.9
20201028010456 58 180 4.0 5.0 0.00 0.00 0.00 100 1015.0
20201028010253 58 157 3.0 5.0 0.00 0.00 0.00 100 1015.0
20201028010053 58 180 2.0 3.0 0.00 0.00 0.00 100 1015.0
20201028005904 58 180 1.0 5.0 0.00 0.00 0.00 100 1015.0
20201028005646 58 157 2.0 5.0 0.00 0.00 0.00 100 1015.0
20201028005448 58 135 5.0 5.0 0.00 0.00 0.00 100 1015.0
20201028005242 58 157 3.0 5.0 0.00 0.00 0.00 100 1015.2
20201028005040 58 45 1.0 4.0 0.00 0.00 0.00 100 1015.1
20201028004839 58 157 3.0 4.0 0.00 0.00 0.00 100 1015.1
20201028004637 58 135 3.0 4.0 0.00 0.00 0.00 100 1015.3
20201028004435 58 157 3.0 4.0 0.00 0.00 0.00 100 1015.2
20201028004233 58 157 1.0 4.0 0.00 0.00 0.00 100 1015.2
20201028004037 58 135 2.0 3.0 0.00 0.00 0.00 100 1015.2
20201028003832 58 135 1.0 3.0 0.00 0.00 0.00 100 1015.2
20201028003626 58 157 3.0 3.0 0.00 0.00 0.00 100 1015.3
20201028003427 58 180 3.0 3.0 0.00 0.00 0.00 100 1015.2
20201028003221 58 180 0.0 3.0 0.00 0.00 0.00 100 1015.2
20201028003023 58 135 2.0 4.0 0.00 0.00 0.00 100 1015.2
20201028002817 58 180 1.0 4.0 0.00 0.00 0.00 100 1015.2
20201028002619 58 135 1.0 4.0 0.00 0.00 0.00 100 1015.3
20201028001404 58 135 2.0 2.0 0.00 0.00 0.00 100 1015.4
20201028001202 58 157 1.0 2.0 0.00 0.00 0.00 100 1015.5
20201028000959 58 157 2.0 4.0 0.00 0.00 0.00 100 1015.4
20201028000759 58 135 2.0 4.0 0.00 0.00 0.00 100 1015.3
20201028000557 58 135 2.0 4.0 0.00 0.00 0.00 100 1015.5
20201028000358 58 157 2.0 4.0 0.00 0.00 0.00 100 1015.5
20201028000159 58 180 2.0 4.0 0.00 0.00 0.00 100 1015.6
20201027235954 58 135 1.0 3.0 0.00 0.00 0.00 100 1015.6
20201027235747 58 135 3.0 4.0 0.00 0.00 0.00 100 1015.6
20201027235549 58 135 2.0 5.0 0.00 0.00 0.00 100 1015.4
20201027235343 58 135 3.0 5.0 0.00 0.00 0.00 100 1015.4
20201027235141 58 180 4.0 5.0 0.00 0.00 0.00 100 1015.5
20201027234939 58 180 2.0 5.0 0.00 0.00 0.00 100 1015.5
20201027234736 58 45 0.0 5.0 0.00 0.00 0.00 100 1015.5
20201027234534 58 135 4.0 5.0 0.00 0.00 0.00 100 1015.6
20201027234339 58 168 3.0 5.0 0.00 0.00 0.00 100 1015.5
20201027234135 58 90 2.0 5.0 0.00 0.00 0.00 100 1015.7
20201027233928 58 180 3.0 5.0 0.00 0.00 0.00 100 1015.6
20201027233726 58 180 2.0 5.0 0.00 0.00 0.00 100 1015.6
20201027233524 58 146 2.0 4.0 0.00 0.00 0.00 100 1015.7
20201027233121 58 180 2.0 5.0 0.00 0.00 0.00 100 1015.6
20201027232923 58 157 2.0 3.0 0.00 0.00 0.00 100 1015.7
20201027232731 58 135 2.0 4.0 0.00 0.00 0.00 100 1015.7
20201027232518 58 135 2.0 4.0 0.00 0.00 0.00 100 1015.7
20201027231705 58 157 3.0 3.0 0.00 0.00 0.00 100 1015.7
20201027230448 58 157 4.0 4.0 0.00 0.00 0.00 100 1015.7
20201027230245 58 135 3.0 4.0 0.00 0.00 0.00 100 1015.7
20201027230053 58 135 3.0 4.0 0.00 0.00 0.00 100 1015.6
20201027225841 58 180 2.0 4.0 0.00 0.00 0.00 100 1015.8
20201027225641 58 135 2.0 3.0 0.00 0.00 0.00 100 1015.7
20201027225438 58 112 2.0 4.0 0.00 0.00 0.00 100 1015.7
20201027225236 58 157 4.0 4.0 0.00 0.00 0.00 100 1015.8
20201027225033 58 135 2.0 3.0 0.00 0.00 0.00 100 1015.8
20201027224839 58 135 2.0 4.0 0.00 0.00 0.00 100 1015.8
20201027224629 58 135 1.0 4.0 0.00 0.00 0.00 100 1015.8
20201027224427 58 135 4.0 4.0 0.00 0.00 0.00 100 1015.9
20201027224225 58 123 1.0 2.0 0.00 0.00 0.00 100 1015.8
20201027224132 58 135 1.0 2.0 0.00 0.00 0.00 100 1015.9
20201027223616 58 180 1.0 2.0 0.00 0.00 0.00 100 1015.8
20201027223417 58 135 2.0 2.0 0.00 0.00 0.00 100 1015.9
20201027223212 58 180 0.0 1.0 0.00 0.00 0.00 100 1015.9
20201027222808 58 270 0.0 0.0 0.00 0.00 0.00 100 1015.9
20201027222609 58 270 0.0 0.0 0.00 0.00 0.00 100 1015.8
20201027222406 58 270 0.0 0.0 0.00 0.00 0.00 100 1015.9
20201027222205 58 270 0.0 0.0 0.00 0.00 0.00 100 1015.9
20201027222000 58 270 0.0 0.0 0.00 0.00 0.00 100 1015.9
20201027221800 58 270 0.0 0.0 0.00 0.00 0.00 100 1015.8
20201027221556 58 270 0.0 0.0 0.00 0.00 0.00 100 1015.9
20201027221354 58 270 0.0 0.0 0.00 0.00 0.00 100 1015.8
20201027221152 58 270 0.0 1.0 0.00 0.00 0.00 100 1015.7
20201027220955 58 270 0.0 1.0 0.00 0.00 0.00 100 1015.8
20201027220748 58 270 0.0 2.0 0.00 0.00 0.00 100 1015.7
20201027220548 58 135 0.0 2.0 0.00 0.00 0.00 100 1015.7
20201027220344 58 146 1.0 1.0 0.00 0.00 0.00 100 1015.7
20201027220143 58 135 1.0 2.0 0.00 0.00 0.00 100 1015.7
20201027215952 58 180 1.0 2.0 0.00 0.00 0.00 100 1015.7
20201027215737 58 180 1.0 1.0 0.00 0.00 0.00 100 1015.7
20201027215535 58 180 0.0 2.0 0.00 0.00 0.00 100 1015.7
20201027215336 58 180 0.0 2.0 0.00 0.00 0.00 100 1015.7
20201027215130 58 180 0.0 3.0 0.00 0.00 0.00 100 1015.7
20201027214929 58 135 0.0 3.0 0.00 0.00 0.00 100 1015.6
20201027214738 58 112 2.0 2.0 0.00 0.00 0.00 100 1015.7
20201027214525 58 180 2.0 2.0 0.00 0.00 0.00 100 1015.6
20201027214135 58 180 0.0 3.0 0.00 0.00 0.00 100 1015.7
20201027213921 58 180 0.0 3.0 0.00 0.00 0.00 100 1015.7
20201027213715 58 180 0.0 3.0 0.00 0.00 0.00 100 1015.6
20201027213517 58 180 2.0 3.0 0.00 0.00 0.00 100 1015.6
20201027213313 58 180 1.0 3.0 0.00 0.00 0.00 100 1015.5
20201027213110 58 180 1.0 3.0 0.00 0.00 0.00 100 1015.5
20201027212907 59 180 3.0 3.0 0.00 0.00 0.00 100 1015.5
20201027212713 59 270 1.0 2.0 0.00 0.00 0.00 100 1015.6
20201027212509 59 270 0.0 1.0 0.00 0.00 0.00 100 1015.5
20201027212312 59 157 1.0 1.0 0.00 0.00 0.00 100 1015.5
20201027212101 59 270 0.0 1.0 0.00 0.00 0.00 100 1015.6
20201027211858 59 270 0.0 1.0 0.00 0.00 0.00 100 1015.6
20201027211656 59 270 1.0 1.0 0.00 0.00 0.00 100 1015.6
20201027211500 59 180 0.0 1.0 0.00 0.00 0.00 100 1015.6
20201027211251 59 180 1.0 2.0 0.00 0.00 0.00 100 1015.5
20201027211052 59 157 1.0 2.0 0.00 0.00 0.00 100 1015.6
20201027210846 59 180 1.0 2.0 0.00 0.00 0.00 100 1015.5
20201027210650 59 180 2.0 2.0 0.00 0.00 0.00 100 1015.5
20201027210447 59 180 1.0 2.0 0.00 0.00 0.00 100 1015.6
20201027210244 59 180 2.0 3.0 0.00 0.00 0.00 100 1015.5
20201027210038 59 135 1.0 3.0 0.00 0.00 0.00 100 1015.6
20201027205836 59 180 1.0 3.0 0.00 0.00 0.00 100 1015.6
20201027205640 59 270 0.0 3.0 0.00 0.00 0.00 100 1015.6
20201027205441 59 180 1.0 3.0 0.00 0.00 0.00 100 1015.6
20201027205233 59 180 1.0 3.0 0.00 0.00 0.00 100 1015.6
20201027205054 59 180 2.0 2.0 0.00 0.00 0.00 100 1015.6
20201027204827 59 180 0.0 2.0 0.00 0.00 0.00 100 1015.5
20201027204635 59 180 1.0 2.0 0.00 0.00 0.00 100 1015.5
20201027204423 59 135 1.0 2.0 0.00 0.00 0.00 100 1015.6
20201027204227 59 180 2.0 3.0 0.00 0.00 0.00 100 1015.6
20201027204026 59 168 1.0 3.0 0.00 0.00 0.00 100 1015.5
20201027203820 59 180 2.0 4.0 0.00 0.00 0.00 100 1015.5
20201027203613 59 180 3.0 4.0 0.00 0.00 0.00 100 1015.4
20201027203414 59 135 2.0 3.0 0.00 0.00 0.00 100 1015.4
20201027203216 59 135 3.0 3.0 0.00 0.00 0.00 100 1015.4
20201027203018 59 135 3.0 3.0 0.00 0.00 0.00 100 1015.4
20201027202805 59 180 2.0 3.0 0.00 0.00 0.00 100 1015.5
20201027202605 59 135 1.0 3.0 0.00 0.00 0.00 100 1015.4
20201027202404 59 135 2.0 3.0 0.00 0.00 0.00 100 1015.4
20201027201351 59 135 1.0 3.0 0.00 0.00 0.00 100 1015.4
20201027201151 59 135 2.0 3.0 0.00 0.00 0.00 100 1015.4
20201027200950 59 112 1.0 3.0 0.00 0.00 0.00 100 1015.4
20201027200746 59 101 1.0 3.0 0.00 0.00 0.00 100 1015.4
20201027200543 59 135 2.0 3.0 0.00 0.00 0.00 100 1015.3
20201027200340 59 135 1.0 4.0 0.00 0.00 0.00 100 1015.3
20201027200144 59 135 2.0 4.0 0.00 0.00 0.00 100 1015.3
20201027195937 60 135 2.0 3.0 0.00 0.00 0.00 100 1015.3
20201027195735 60 135 1.0 3.0 0.00 0.00 0.00 100 1015.2
20201027195536 60 135 1.0 3.0 0.00 0.00 0.00 100 1015.2
20201027195330 60 157 1.0 3.0 0.00 0.00 0.00 99 1015.3
20201027195128 60 135 2.0 3.0 0.00 0.00 0.00 99 1015.4
20201027194926 60 135 1.0 3.0 0.00 0.00 0.00 99 1015.4
20201027194724 60 157 2.0 3.0 0.00 0.00 0.00 99 1015.3
20201027194522 60 135 2.0 3.0 0.00 0.00 0.00 99 1015.4
20201027194320 60 135 1.0 2.0 0.00 0.00 0.00 99 1015.4
20201027194123 60 180 1.0 2.0 0.00 0.00 0.00 99 1015.4
20201027193916 60 180 1.0 1.0 0.00 0.00 0.00 99 1015.4
20201027193714 60 180 1.0 1.0 0.00 0.00 0.00 98 1015.4
20201027193538 60 180 1.0 2.0 0.00 0.00 0.00 99 1015.4
20201027193310 60 112 1.0 2.0 0.00 0.00 0.00 98 1015.5
20201027193118 60 180 0.0 1.0 0.00 0.00 0.00 98 1015.4
20201027192907 60 180 0.0 1.0 0.00 0.00 0.00 98 1015.4
20201027192705 60 180 0.0 1.0 0.00 0.00 0.00 98 1015.3
20201027192521 60 180 0.0 1.0 0.00 0.00 0.00 98 1015.3
20201027192300 60 180 0.0 3.0 0.00 0.00 0.00 98 1015.3
20201027192100 60 0 0.0 3.0 0.00 0.00 0.00 98 1015.3
20201027191908 60 180 1.0 3.0 0.00 0.00 0.00 98 1015.3
20201027191657 60 135 0.0 1.0 0.00 0.00 0.00 98 1015.4
20201027191453 60 135 0.0 3.0 0.00 0.00 0.00 98 1015.3
20201027191252 60 180 1.0 3.0 0.00 0.00 0.00 98 1015.2
20201027191050 60 180 2.0 2.0 0.00 0.00 0.00 98 1015.3
20201027190845 60 180 1.0 1.0 0.00 0.00 0.00 98 1015.3
20201027190643 60 180 1.0 4.0 0.00 0.00 0.00 97 1015.2
20201027190441 60 135 1.0 4.0 0.00 0.00 0.00 97 1015.2
20201027190240 60 135 1.0 2.0 0.00 0.00 0.00 97 1015.2
20201027190036 60 135 1.0 3.0 0.00 0.00 0.00 97 1015.2
20201027185838 60 90 3.0 3.0 0.00 0.00 0.00 97 1015.1
20201027185641 60 135 3.0 4.0 0.00 0.00 0.00 97 1015.1
20201027185431 60 135 2.0 4.0 0.00 0.00 0.00 97 1015.0
20201027185228 60 146 3.0 4.0 0.00 0.00 0.00 97 1015.0
20201027185030 60 135 3.0 4.0 0.00 0.00 0.00 97 1015.2
20201027184824 60 135 2.0 4.0 0.00 0.00 0.00 97 1015.1
20201027184623 60 135 1.0 4.0 0.00 0.00 0.00 97 1015.1
20201027184420 60 135 4.0 4.0 0.00 0.00 0.00 97 1015.0
20201027184217 60 135 2.0 5.0 0.00 0.00 0.00 97 1015.2
20201027184018 60 135 3.0 5.0 0.00 0.00 0.00 97 1015.1
20201027183813 60 157 4.0 5.0 0.00 0.00 0.00 97 1015.1
20201027183612 60 135 2.0 3.0 0.00 0.00 0.00 97 1015.1
20201027183413 60 90 2.0 3.0 0.00 0.00 0.00 96 1015.1
20201027183209 60 135 2.0 3.0 0.00 0.00 0.00 96 1015.1
20201027183020 60 135 2.0 3.0 0.00 0.00 0.00 96 1015.1
20201027182402 60 135 3.0 4.0 0.00 0.00 0.00 96 1015.2
20201027182159 60 135 2.0 4.0 0.00 0.00 0.00 96 1015.0
20201027182006 60 180 2.0 3.0 0.00 0.00 0.00 96 1015.2
20201027181754 60 135 2.0 3.0 0.00 0.00 0.00 96 1015.0
20201027181552 60 135 1.0 3.0 0.00 0.00 0.00 96 1015.1
20201027181348 60 135 2.0 3.0 0.00 0.00 0.00 96 1015.0
20201027181148 60 90 1.0 2.0 0.00 0.00 0.00 96 1015.0
20201027180947 60 135 1.0 2.0 0.00 0.00 0.00 96 1015.0
20201027180743 60 135 1.0 3.0 0.00 0.00 0.00 96 1015.1
20201027180547 60 135 1.0 3.0 0.00 0.00 0.00 96 1015.1
20201027180339 60 180 2.0 2.0 0.00 0.00 0.00 96 1015.0
20201027180231 60 135 1.0 2.0 0.00 0.00 0.00 96 1015.0
20201027175936 60 157 1.0 2.0 0.00 0.00 0.00 96 1015.1
20201027175736 60 90 0.0 2.0 0.00 0.00 0.00 96 1015.1
20201027175531 60 90 1.0 3.0 0.00 0.00 0.00 96 1015.0
20201027175329 60 180 1.0 3.0 0.00 0.00 0.00 96 1015.0
20201027175126 60 157 1.0 3.0 0.00 0.00 0.00 96 1015.0
20201027174924 60 123 1.0 3.0 0.00 0.00 0.00 96 1014.8
20201027174734 60 180 1.0 3.0 0.00 0.00 0.00 96 1014.9
20201027174531 60 135 1.0 2.0 0.00 0.00 0.00 96 1014.9
20201027174319 60 135 1.0 2.0 0.00 0.00 0.00 96 1014.8
20201027174120 60 135 1.0 3.0 0.00 0.00 0.00 96 1014.9
20201027173914 60 135 2.0 3.0 0.00 0.00 0.00 95 1014.8
20201027173715 60 135 1.0 3.0 0.00 0.00 0.00 95 1014.9
20201027173513 60 135 2.0 3.0 0.00 0.00 0.00 95 1014.8
20201027173308 60 135 2.0 3.0 0.00 0.00 0.00 95 1014.8
20201027173108 60 135 2.0 3.0 0.00 0.00 0.00 96 1014.8
20201027172903 61 180 2.0 2.0 0.00 0.00 0.00 95 1014.8
20201027172702 61 135 2.0 3.0 0.00 0.00 0.00 95 1014.8
20201027172510 61 112 1.0 4.0 0.00 0.00 0.00 95 1014.9
20201027172257 61 180 1.0 4.0 0.00 0.00 0.00 95 1014.7
20201027172055 61 157 3.0 4.0 0.00 0.00 0.00 95 1014.7
20201027171853 61 180 1.0 4.0 0.00 0.00 0.00 95 1014.8
20201027171653 61 180 1.0 4.0 0.00 0.00 0.00 95 1014.8
20201027171450 61 225 1.0 3.0 0.00 0.00 0.00 95 1014.7
20201027171249 61 180 1.0 4.0 0.00 0.00 0.00 95 1014.8
20201027171122 61 135 2.0 4.0 0.00 0.00 0.00 94 1014.7
20201027170843 61 180 1.0 4.0 0.00 0.00 0.00 95 1014.7
20201027170643 61 157 1.0 4.0 0.00 0.00 0.00 95 1014.7
20201027170438 61 123 2.0 3.0 0.00 0.00 0.00 94 1014.7
20201027170237 61 180 1.0 3.0 0.00 0.00 0.00 95 1014.6
20201027170040 62 180 3.0 3.0 0.00 0.00 0.00 95 1014.7
20201027165842 62 180 2.0 4.0 0.00 0.00 0.00 95 1014.6
20201027165636 62 135 3.0 4.0 0.00 0.00 0.00 95 1014.8
20201027165436 62 180 1.0 4.0 0.00 0.00 0.00 95 1014.7
20201027165229 62 157 4.0 4.0 0.00 0.00 0.00 94 1014.7
20201027165031 62 157 1.0 3.0 0.00 0.00 0.00 95 1014.7
20201027164825 62 225 1.0 3.0 0.00 0.00 0.00 94 1014.9
20201027164621 62 270 0.0 1.0 0.00 0.00 0.00 94 1014.9
20201027164417 62 270 0.0 1.0 0.00 0.00 0.00 94 1014.9
20201027164218 62 180 0.0 2.0 0.00 0.00 0.00 94 1014.9
20201027164021 62 157 1.0 2.0 0.00 0.00 0.00 94 1014.8
20201027163814 62 270 0.0 1.0 0.00 0.00 0.00 94 1014.9
20201027163615 62 180 0.0 1.0 0.00 0.00 0.00 94 1014.9
20201027162802 62 157 0.0 2.0 0.00 0.00 0.00 94 1015.0
20201027162604 62 157 0.0 2.0 0.00 0.00 0.00 93 1014.9
20201027162357 62 180 1.0 2.0 0.00 0.00 0.00 93 1015.0
20201027162155 62 270 0.0 2.0 0.00 0.00 0.00 93 1014.9
20201027161748 61 270 0.0 2.0 0.00 0.00 0.00 93 1015.0
20201027161552 62 157 0.0 3.0 0.00 0.00 0.00 93 1015.2
20201027161353 62 270 1.0 3.0 0.00 0.00 0.00 93 1015.2
20201027161141 62 270 2.0 3.0 0.00 0.00 0.00 93 1015.2
20201027160943 62 270 3.0 3.0 0.00 0.00 0.00 93 1015.3
20201027160741 61 225 1.0 3.0 0.00 0.00 0.00 93 1015.3
20201027160547 61 270 2.0 2.0 0.00 0.00 0.00 92 1015.3
20201027160138 61 270 2.0 4.0 0.00 0.00 0.00 92 1015.2
20201027155930 61 270 1.0 4.0 0.00 0.00 0.00 92 1015.2
20201027155735 61 180 2.0 6.0 0.00 0.00 0.00 92 1015.3
20201027155525 62 157 5.0 6.0 0.00 0.00 0.00 91 1015.2
20201027155323 62 270 3.0 4.0 0.00 0.00 0.00 91 1015.2
20201027155121 62 225 3.0 4.0 0.00 0.00 0.00 91 1015.2
20201027154925 62 270 3.0 4.0 0.00 0.00 0.00 90 1015.3
20201027154539 62 270 3.0 6.0 0.00 0.00 0.00 90 1015.2
20201027154312 62 225 4.0 6.0 0.00 0.00 0.00 90 1015.4
20201027154113 62 157 6.0 6.0 0.00 0.00 0.00 89 1015.4
20201027153909 62 225 4.0 4.0 0.00 0.00 0.00 89 1015.3
20201027153716 62 180 3.0 4.0 0.00 0.00 0.00 89 1015.4
20201027153512 62 180 2.0 4.0 0.00 0.00 0.00 89 1015.5
20201027153302 62 225 3.0 4.0 0.00 0.00 0.00 89 1015.3
20201027153100 62 270 3.0 4.0 0.00 0.00 0.00 89 1015.3
20201027152252 63 157 3.0 4.0 0.00 0.00 0.00 89 1015.2
20201027151039 63 270 1.0 4.0 0.00 0.00 0.00 88 1015.3
20201027150839 63 270 1.0 4.0 0.00 0.00 0.00 88 1015.2
20201027150635 63 270 1.0 6.0 0.00 0.00 0.00 88 1015.3
20201027150433 63 270 3.0 6.0 0.00 0.00 0.00 88 1015.3
20201027150231 63 157 4.0 7.0 0.00 0.00 0.00 88 1015.4
20201027150034 63 270 5.0 7.0 0.00 0.00 0.00 88 1015.3
20201027145827 63 225 4.0 6.0 0.00 0.00 0.00 88 1015.4
20201027145628 63 225 5.0 6.0 0.00 0.00 0.00 88 1015.4
20201027145423 63 270 1.0 7.0 0.00 0.00 0.00 88 1015.3
20201027145221 63 270 4.0 7.0 0.00 0.00 0.00 88 1015.3
20201027145027 63 0 4.0 7.0 0.00 0.00 0.00 87 1015.3
20201027144820 63 270 4.0 7.0 0.00 0.00 0.00 87 1015.3
20201027144615 63 270 3.0 5.0 0.00 0.00 0.00 87 1015.3
20201027144413 63 225 5.0 5.0 0.00 0.00 0.00 87 1015.3
20201027144213 63 157 4.0 7.0 0.00 0.00 0.00 86 1015.3
20201027144025 63 225 4.0 7.0 0.00 0.00 0.00 86 1015.3
20201027143809 63 270 3.0 6.0 0.00 0.00 0.00 86 1015.3
20201027143606 63 45 4.0 6.0 0.00 0.00 0.00 86 1015.3
20201027143403 63 225 5.0 6.0 0.00 0.00 0.00 86 1015.3
20201027143203 63 270 3.0 6.0 0.00 0.00 0.00 86 1015.3
20201027142959 63 270 4.0 5.0 0.00 0.00 0.00 85 1015.2
20201027142756 63 270 3.0 5.0 0.00 0.00 0.00 85 1015.2
20201027142558 63 180 2.0 6.0 0.00 0.00 0.00 85 1015.2
20201027142356 63 270 3.0 6.0 0.00 0.00 0.00 85 1015.2
20201027142150 63 225 6.0 6.0 0.00 0.00 0.00 85 1015.1
20201027142014 64 180 4.0 4.0 0.00 0.00 0.00 85 1015.2
20201027141753 64 180 3.0 6.0 0.00 0.00 0.00 85 1015.2
20201027141547 64 180 4.0 6.0 0.00 0.00 0.00 85 1015.2
20201027141341 64 270 2.0 5.0 0.00 0.00 0.00 85 1015.2
20201027141151 64 225 3.0 4.0 0.00 0.00 0.00 84 1015.2